Weather in Verkhnyaya Amga

Russia / Sakha (Yakutia) Republic     59°38′57″N   127°06′54″E
temp.,
°C
wind,
m/s
gust,
m/s
humid.,
%
clouds,
%
prec.,
mm/h
press.,
hPa
HPBL,
m
12 may, wed
wed1200:00+4ne2492100 0.0 1012108
03:00+4ene3893100 0.0 1011259
06:00+4ene41093100 0.0 1009373
09:00+4ene41193100 2.9 1008545
12:00+5ese3697100 6.9 1008821
15:00+5nne2397100 8.9 1008237
18:00+3n2498100 0.3 1009295
21:00+2nne1599100 0.4 1011366
13 may, thu
thu1300:00+2nne2598100 0.1 1011539
03:00+2nne2698100 0.2 1011507
06:00+2ne2798100 0.2 1012536
09:00+3nne3789100 0.7 1012562
12:00+6ne3571100 0.0 10111093
15:00+7ne3567100 0.0 10111246
18:00+7ne2570100 0.0 1011635
21:00+3nne2380100 0.0 101250
14 may, fri
fri1400:00+2nne2277100 0.0 101332
03:00+1nne2478100 0.0 101369
06:00+3ne2972100 0.0 1013312
09:00+7ene4756100 0.0 1012708
12:00+9e4653100 0.1 10111368
15:00+9ne3662100 0.3 10101035
18:00+10nne256195 0.0 1009784
21:00+6nne397799 0.0 1010195
15 may, sat
sat1500:00+5nne3107096 0.0 1011270
03:00+3nne377399 0.0 1011153
06:00+4nne287095 0.0 1010242
09:00+10ne354563 0.0 1009597
12:00+13ne443831 0.0 10071700
15:00+14ne343677 0.0 10052111
18:00+14ne233892 0.0 10042143
21:00+8nne2263100 0.0 100511
16 may, sun
sun1600:00+6n11696 0.0 100510
03:00+4n11718 0.0 100510
06:00+6n116560 0.0 100449
09:00+12ese225538 0.0 1002665
12:00+14ese2250100 1.3 10001397
15:00+14ese234499 2.7 9991968
18:00+8w4788100 2.1 1002601
21:00+6nnw3791100 6.9 1003385